CW1035 Port Townsend WA US current weather conditions

sailwx.info

Wind from 274 at 3 knots gusting 10

Air temperature 11.7° C
Dewpoint 9.1° C

Last reported at 2020-Aug-13 07:56 UTC.
Time now 2020-Aug-13 08:20 UTC

Location: N 48°08' W 122°46'.
View on Google Maps.

See reports from other nearby stations

  
Tides and Currents Weather Stations Pressure Air Temp Water Temp Dewpoint Dewpoint Depression Visibility Wind Speed Wind Dir Waves Ship Positions
date/time (UTC)wind fromknots sea level pressurealtimeterstation pressurevisibilityair tempwater tempwave heightnotes
2020-Aug-13 07:56 274 3 gusting 10 11.7
2020-Aug-13 07:51 228 6 gusting 6 11.7
2020-Aug-13 07:46 280 2 gusting 7 11.7
2020-Aug-13 07:41 248 4 gusting 10 11.7
2020-Aug-13 07:36 254 6 gusting 12 11.7
2020-Aug-13 07:31 230 3 gusting 12 12.2
2020-Aug-13 07:26 267 6 gusting 11 12.2
2020-Aug-13 07:21 279 4 gusting 9 12.2
2020-Aug-13 07:16 259 6 gusting 9 12.2
2020-Aug-13 07:11 241 2 gusting 10 12.2
2020-Aug-13 07:06 262 3 gusting 10 12.2
2020-Aug-13 07:02 295 1 gusting 10 12.2
2020-Aug-13 06:56 326 3 gusting 10 12.2
2020-Aug-13 06:51 316 2 gusting 9 12.2
2020-Aug-13 06:46 309 4 gusting 8 12.2
2020-Aug-13 06:42 284 2 gusting 8 12.2
2020-Aug-13 06:36 276 2 gusting 8 12.2
2020-Aug-13 06:31 271 4 gusting 8 12.2
2020-Aug-13 06:27 265 1 gusting 9 12.2
2020-Aug-13 06:21 278 6 gusting 9 12.2
2020-Aug-13 06:16 238 1 gusting 8 12.8
2020-Aug-13 06:11 293 2 gusting 8 12.8
2020-Aug-13 06:06 290 2 gusting 8 12.8
2020-Aug-13 06:01 307 6 gusting 9 12.8
2020-Aug-13 05:56 269 4 gusting 9 12.8
2020-Aug-13 05:51 272 2 gusting 9 12.8
2020-Aug-13 05:46 316 4 gusting 10 12.8
2020-Aug-13 05:41 013 6 gusting 10 12.8
2020-Aug-13 05:36 319 5 gusting 9 12.8
2020-Aug-13 05:31 259 2 gusting 9 12.8
2020-Aug-13 05:26 296 1 gusting 9 12.8
2020-Aug-13 05:21 262 5 gusting 7 12.8
2020-Aug-13 05:16 224 2 gusting 11 12.8
2020-Aug-13 05:11 262 1 gusting 13 12.8
2020-Aug-13 05:06 276 1 gusting 13 12.8
2020-Aug-13 05:01 283 9 gusting 9 13.3
2020-Aug-13 04:56 267 3 gusting 7 13.3
2020-Aug-13 04:51 330 2 gusting 10 13.3
2020-Aug-13 04:47 301 6 gusting 10 13.3
2020-Aug-13 04:41 227 1 gusting 9 13.3
2020-Aug-13 04:36 225 6 gusting 9 13.3
2020-Aug-13 04:32 299 4 gusting 9 13.3
2020-Aug-13 04:27 269 3 gusting 10 13.3
2020-Aug-13 04:21 331 4 gusting 10 13.3
2020-Aug-13 04:17 114 2 gusting 9 13.3
2020-Aug-13 04:12 276 3 gusting 9 13.3
2020-Aug-13 04:06 276 4 gusting 10 13.3
2020-Aug-13 04:02 276 2 gusting 10 13.3
2020-Aug-13 03:56 303 3 gusting 8 13.9
2020-Aug-13 03:51 260 4 gusting 9 13.9
2020-Aug-13 03:47 281 2 gusting 10 13.9
2020-Aug-13 03:41 291 4 gusting 10 13.9
2020-Aug-13 03:36 264 2 gusting 6 13.9
2020-Aug-13 03:32 267 2 gusting 10 14.4
2020-Aug-13 03:27 248 5 gusting 10 14.4
2020-Aug-13 03:21 271 6 gusting 8 14.4
2020-Aug-13 03:17 255 6 gusting 8 14.4
2020-Aug-13 03:11 315 3 gusting 6 15.0
2020-Aug-13 03:06 267 3 gusting 6 15.0
2020-Aug-13 03:01 277 1 gusting 6 15.0
2020-Aug-13 02:56 261 2 gusting 5 15.6
2020-Aug-13 02:51 298 2 gusting 6 15.6
2020-Aug-13 02:46 272 1 gusting 6 15.6
2020-Aug-13 02:42 277 2 gusting 6 15.6
2020-Aug-13 02:36 296 1 gusting 6 16.1
2020-Aug-13 02:31 270 1 gusting 6 16.1
2020-Aug-13 02:27 268 3 gusting 6 16.1
2020-Aug-13 02:21 255 4 gusting 6 16.1
2020-Aug-13 02:16 290 1 gusting 6 16.1
2020-Aug-13 02:11 293 4 gusting 7 16.7
2020-Aug-13 02:06 284 5 gusting 7 16.7
2020-Aug-13 02:01 321 1 gusting 6 17.2
2020-Aug-13 01:56 333 2 gusting 6 17.2
2020-Aug-13 01:51 304 4 gusting 5 17.8
2020-Aug-13 01:46 337 2 gusting 5 18.3
2020-Aug-13 01:42 263 2 gusting 5 18.3
2020-Aug-13 01:36 099 1 gusting 2 18.3
2020-Aug-13 01:31 112 0 gusting 2 18.3
2020-Aug-13 01:26 102 18.3
2020-Aug-13 01:21 102 18.3
2020-Aug-13 01:16 079 1 gusting 2 18.3
2020-Aug-13 01:11 073 18.3
2020-Aug-13 01:06 071 0 gusting 2 17.8
2020-Aug-13 01:01 067 1 gusting 2 17.8
2020-Aug-13 00:57 085 1 gusting 1 17.8
2020-Aug-13 00:51 063 17.8
2020-Aug-13 00:46 085 0 gusting 2 17.8
2020-Aug-13 00:41 068 1 gusting 1 17.2
2020-Aug-13 00:36 313 0 gusting 0 17.2
2020-Aug-13 00:31 313 17.2
2020-Aug-13 00:26 309 0 gusting 1 17.2
2020-Aug-13 00:21 072 0 gusting 1 17.2
2020-Aug-13 00:16 086 17.2
2020-Aug-13 00:11 094 0 gusting 1 17.2
2020-Aug-13 00:06 094 17.2
2020-Aug-13 00:01 089 0 gusting 1 17.2
2020-Aug-12 23:56 084 0 gusting 3 17.2
2020-Aug-12 23:51 074 0 gusting 3 17.2
2020-Aug-12 23:46 087 2 gusting 2 17.8
2020-Aug-12 23:41 079 0 gusting 2 17.8
2020-Aug-12 23:36 093 1 gusting 3 17.8
2020-Aug-12 23:31 307 1 gusting 3 17.8
2020-Aug-12 23:26 340 0 gusting 2 17.8
2020-Aug-12 23:21 016 1 gusting 3 18.3
2020-Aug-12 23:16 096 18.9
2020-Aug-12 23:11 155 1 gusting 7 18.9
2020-Aug-12 23:06 221 0 gusting 7 18.9
2020-Aug-12 23:01 142 3 gusting 6 19.4
2020-Aug-12 22:56 145 5 gusting 6 19.4
2020-Aug-12 22:51 262 1 gusting 6 19.4
2020-Aug-12 22:46 108 0 gusting 6 19.4
2020-Aug-12 22:41 258 0 gusting 6 19.4
2020-Aug-12 22:36 251 1 gusting 6 18.9
2020-Aug-12 22:31 137 1 gusting 5 18.9
2020-Aug-12 22:26 195 1 gusting 4 18.3
2020-Aug-12 22:21 109 2 gusting 4 18.3
2020-Aug-12 22:16 115 4 gusting 4 18.3
2020-Aug-12 22:11 153 0 gusting 3 18.3
2020-Aug-12 22:06 134 2 gusting 3 18.3
2020-Aug-12 22:01 239 1 gusting 4 18.9
2020-Aug-12 21:56 134 0 gusting 5 18.3
2020-Aug-12 21:51 136 2 gusting 5 18.3
2020-Aug-12 21:46 089 3 gusting 4 17.8
2020-Aug-12 21:41 122 3 gusting 4 17.2
2020-Aug-12 21:36 168 17.2
2020-Aug-12 21:31 113 2 gusting 5 17.2
2020-Aug-12 21:26 131 3 gusting 4 16.7
2020-Aug-12 21:21 072 2 gusting 4 16.7
2020-Aug-12 21:16 096 1 gusting 3 17.2
2020-Aug-12 21:11 105 3 gusting 3 17.2
2020-Aug-12 21:06 127 2 gusting 6 17.2
2020-Aug-12 21:01 116 2 gusting 6 17.2
2020-Aug-12 20:56 087 3 gusting 6 17.2
2020-Aug-12 20:51 118 4 gusting 6 17.2
2020-Aug-12 20:46 086 4 gusting 6 17.2
2020-Aug-12 20:41 073 4 gusting 6 17.2
2020-Aug-12 20:36 093 4 gusting 7 17.2
2020-Aug-12 20:31 113 3 gusting 8 17.2
2020-Aug-12 20:26 098 3 gusting 8 17.2
2020-Aug-12 20:21 073 6 gusting 8 17.2
2020-Aug-12 20:16 064 6 gusting 8 17.2
2020-Aug-12 20:11 060 5 gusting 8 17.2
2020-Aug-12 20:06 101 3 gusting 9 17.2
2020-Aug-12 20:01 100 8 gusting 9 17.2
2020-Aug-12 19:56 151 4 gusting 8 17.2
2020-Aug-12 19:51 140 3 gusting 8 17.2
2020-Aug-12 19:46 164 7 gusting 8 17.2
2020-Aug-12 19:41 129 3 gusting 8 17.2
2020-Aug-12 19:36 134 4 gusting 9 16.7
2020-Aug-12 19:31 104 6 gusting 10 16.7
2020-Aug-12 19:26 120 3 gusting 10 16.7
2020-Aug-12 19:21 109 6 gusting 10 16.7
2020-Aug-12 19:16 141 6 gusting 10 16.7
2020-Aug-12 19:11 097 6 gusting 10 17.2
2020-Aug-12 19:06 091 6 gusting 9 17.2
2020-Aug-12 19:01 110 3 gusting 9 17.2
2020-Aug-12 18:56 122 7 gusting 8 17.2
2020-Aug-12 18:51 134 4 gusting 9 17.2
2020-Aug-12 18:46 127 3 gusting 9 16.7
2020-Aug-12 18:41 117 4 gusting 9 16.7
2020-Aug-12 18:36 129 5 gusting 8 16.7
2020-Aug-12 18:31 080 6 gusting 7 16.7
2020-Aug-12 18:26 085 6 gusting 10 16.1
2020-Aug-12 18:21 142 3 gusting 10 16.1
2020-Aug-12 18:16 128 4 gusting 9 16.1
2020-Aug-12 18:11 105 6 gusting 9 16.1
2020-Aug-12 18:06 098 4 gusting 9 16.1
2020-Aug-12 18:01 106 3 gusting 9 16.1
2020-Aug-12 17:56 091 5 gusting 9 16.1
2020-Aug-12 17:51 101 7 gusting 9 16.1
2020-Aug-12 17:46 131 5 gusting 9 16.1
2020-Aug-12 17:41 108 6 gusting 11 16.1
2020-Aug-12 17:36 139 4 gusting 11 16.1
2020-Aug-12 17:31 105 6 gusting 9 16.1
2020-Aug-12 17:26 153 5 gusting 10 16.1
2020-Aug-12 17:21 120 9 gusting 10 16.1
2020-Aug-12 17:16 129 5 gusting 10 16.1
2020-Aug-12 17:11 099 9 gusting 10 16.1
2020-Aug-12 17:06 100 4 gusting 10 16.1
2020-Aug-12 17:01 112 10 gusting 10 16.1
2020-Aug-12 16:56 105 4 gusting 6 16.1
2020-Aug-12 16:51 100 2 gusting 5 15.6
2020-Aug-12 16:46 129 3 gusting 5 15.6
2020-Aug-12 16:41 120 2 gusting 5 15.6
2020-Aug-12 16:36 187 2 gusting 6 15.0
2020-Aug-12 16:31 087 3 gusting 6 15.6
2020-Aug-12 16:26 143 3 gusting 6 15.6
2020-Aug-12 16:21 116 3 gusting 5 15.6
2020-Aug-12 16:16 114 2 gusting 5 15.6
2020-Aug-12 16:11 134 3 gusting 5 15.6
2020-Aug-12 16:06 122 3 gusting 5 15.6
2020-Aug-12 16:01 138 1 gusting 5 15.6
2020-Aug-12 15:56 122 4 gusting 5 15.6
2020-Aug-12 15:51 142 0 gusting 4 15.6
2020-Aug-12 15:46 212 1 gusting 7 15.0
2020-Aug-12 15:41 116 1 gusting 7 15.0
2020-Aug-12 15:36 245 2 gusting 6 15.6
2020-Aug-12 15:31 115 0 gusting 3 15.6
2020-Aug-12 15:26 229 3 gusting 6 15.6
2020-Aug-12 15:21 108 1 gusting 6 15.6
2020-Aug-12 15:16 144 1 gusting 6 15.6
2020-Aug-12 15:11 148 0 gusting 6 15.0
2020-Aug-12 15:06 117 2 gusting 6 15.0
2020-Aug-12 15:01 129 2 gusting 6 15.0
2020-Aug-12 14:56 167 2 gusting 2 15.0
2020-Aug-12 14:51 108 0 gusting 2 14.4
2020-Aug-12 14:46 239 13.9
2020-Aug-12 14:41 199 13.9
2020-Aug-12 14:36 214 0 gusting 2 13.3
2020-Aug-12 14:31 262 0 gusting 2 13.3
2020-Aug-12 14:26 255 13.3
2020-Aug-12 14:21 244 0 gusting 1 12.8
2020-Aug-12 14:16 245 12.8
2020-Aug-12 14:11 221 0 gusting 1 12.8
2020-Aug-12 14:06 234 12.8
2020-Aug-12 14:01 248 12.8
2020-Aug-12 13:56 248 0 gusting 1 12.8
2020-Aug-12 13:51 213 12.8
2020-Aug-12 13:46 255 12.8
2020-Aug-12 13:41 263 12.8
2020-Aug-12 13:36 268 0 gusting 1 12.8
2020-Aug-12 13:31 237 12.8
2020-Aug-12 13:26 211 0 gusting 3 12.8
2020-Aug-12 13:21 221 1 gusting 3 12.8
2020-Aug-12 13:16 212 0 gusting 2 12.8
2020-Aug-12 13:11 226 0 gusting 2 12.8
2020-Aug-12 13:06 231 0 gusting 2 12.8
2020-Aug-12 13:01 210 12.8
2020-Aug-12 12:56 252 12.8
2020-Aug-12 12:51 212 12.8
2020-Aug-12 12:46 248 1 gusting 4 12.8
2020-Aug-12 12:41 240 12.8
2020-Aug-12 12:36 311 12.8
2020-Aug-12 12:31 263 0 gusting 2 12.8
2020-Aug-12 12:26 252 1 gusting 3 12.8
2020-Aug-12 12:21 265 0 gusting 3 12.8
2020-Aug-12 12:16 265 1 gusting 2 12.8
2020-Aug-12 12:11 260 0 gusting 2 12.8
2020-Aug-12 12:06 245 0 gusting 3 12.8
2020-Aug-12 12:01 258 12.8
2020-Aug-12 11:56 259 12.8
2020-Aug-12 11:51 256 0 gusting 3 12.8
2020-Aug-12 11:46 264 0 gusting 3 12.8
2020-Aug-12 11:41 270 0 gusting 3 12.8
2020-Aug-12 11:36 243 0 gusting 4 12.8
2020-Aug-12 11:31 236 1 gusting 4 12.8
2020-Aug-12 11:26 259 0 gusting 5 12.2
2020-Aug-12 11:21 259 0 gusting 6 12.2
2020-Aug-12 11:16 274 3 gusting 6 12.2
2020-Aug-12 11:11 257 12.2
2020-Aug-12 11:06 221 1 gusting 6 12.2
2020-Aug-12 11:01 286 3 gusting 6 12.2
2020-Aug-12 10:56 244 0 gusting 6 12.8
2020-Aug-12 10:51 269 3 gusting 6 12.8
2020-Aug-12 10:46 269 5 gusting 6 12.8
2020-Aug-12 10:41 250 12.8
2020-Aug-12 10:36 272 1 gusting 6 12.8
2020-Aug-12 10:31 305 1 gusting 6 12.8
2020-Aug-12 10:26 245 2 gusting 8 12.8
2020-Aug-12 10:21 316 5 gusting 8 12.8
2020-Aug-12 10:16 297 5 gusting 9 12.8
2020-Aug-12 10:11 226 3 gusting 9 12.8
2020-Aug-12 10:06 268 1 gusting 8 12.8
2020-Aug-12 10:01 266 1 gusting 8 12.8
2020-Aug-12 09:56 219 2 gusting 7 12.8
2020-Aug-12 09:51 252 3 gusting 6 12.8
2020-Aug-12 09:46 249 1 gusting 7 12.8
2020-Aug-12 09:41 260 2 gusting 8 12.8
2020-Aug-12 09:36 229 4 gusting 8 12.8
2020-Aug-12 09:31 288 2 gusting 8 12.8
2020-Aug-12 09:26 297 1 gusting 12 12.8
2020-Aug-12 09:21 243 4 gusting 12 12.8
2020-Aug-12 09:16 262 4 gusting 10 12.8
2020-Aug-12 09:11 309 2 gusting 10 12.8
2020-Aug-12 09:06 248 6 gusting 10 12.8
2020-Aug-12 09:01 299 2 gusting 11 12.8
2020-Aug-12 08:56 271 6 gusting 11 12.8
2020-Aug-12 08:51 242 3 gusting 9 12.8
2020-Aug-12 08:46 268 2 gusting 7 12.8
2020-Aug-12 08:41 265 5 gusting 9 12.8
2020-Aug-12 08:26 279 2 gusting 10 12.8
2020-Aug-12 08:21 326 3 gusting 12 12.8
2020-Aug-12 08:16 281 2 gusting 12 12.8
2020-Aug-12 08:11 037 12.8
2020-Aug-12 08:06 260 5 gusting 11 12.8
2020-Aug-12 08:01 272 6 gusting 13 12.8
2020-Aug-12 07:56 287 3 gusting 13 12.8
2020-Aug-12 07:51 179 0 gusting 13 12.8
2020-Aug-12 07:46 157 1 gusting 13 12.8
2020-Aug-12 07:42 233 3 gusting 12 12.8
2020-Aug-12 07:36 280 0 gusting 12 12.8
2020-Aug-12 07:31 259 5 gusting 13 12.8
2020-Aug-12 07:26 318 3 gusting 13 12.8
2020-Aug-12 07:21 255 1 gusting 13 12.8
2020-Aug-12 07:16 286 6 gusting 13 12.8
2020-Aug-12 07:11 252 1 gusting 13 12.8
2020-Aug-12 07:06 295 5 gusting 15 12.8
2020-Aug-12 07:01 266 4 gusting 15 12.8
2020-Aug-12 06:56 248 8 gusting 18 12.8
2020-Aug-12 06:51 251 6 gusting 18 12.8
2020-Aug-12 06:46 260 5 gusting 15 12.8
2020-Aug-12 06:41 255 6 gusting 19 12.8
2020-Aug-12 06:36 360 3 gusting 19 12.8
2020-Aug-12 06:31 194 1 gusting 15 12.8
2020-Aug-12 06:26 238 6 gusting 15 12.8
2020-Aug-12 06:21 248 6 gusting 16 12.8
2020-Aug-12 06:16 316 1 gusting 16 12.8
2020-Aug-12 06:11 044 0 gusting 13 12.8
2020-Aug-12 06:06 062 6 gusting 18 12.8
2020-Aug-12 06:01 323 3 gusting 18 12.8
2020-Aug-12 05:56 217 6 gusting 15 12.8
2020-Aug-12 05:51 008 5 gusting 15 12.8
2020-Aug-12 05:46 285 11 gusting 11 12.2
2020-Aug-12 05:41 307 8 gusting 12 12.2
2020-Aug-12 05:36 257 6 gusting 12 12.8
2020-Aug-12 05:31 256 10 gusting 12 12.8
2020-Aug-12 05:26 245 3 gusting 13 12.8
2020-Aug-12 05:21 311 4 gusting 15 12.8
2020-Aug-12 05:16 305 3 gusting 15 12.8
2020-Aug-12 05:11 281 9 gusting 14 12.8
2020-Aug-12 05:06 260 6 gusting 14 12.8
2020-Aug-12 05:01 317 4 gusting 12 12.8
2020-Aug-12 04:56 269 1 gusting 16 12.8
2020-Aug-12 04:51 242 5 gusting 16 12.8
2020-Aug-12 04:46 267 4 gusting 16 12.8
2020-Aug-12 04:41 271 6 gusting 16 12.8
2020-Aug-12 04:36 263 5 gusting 16 12.8
2020-Aug-12 04:31 346 6 gusting 16 12.8
2020-Aug-12 04:26 293 13 gusting 16 12.8
2020-Aug-12 04:21 257 6 gusting 17 12.8
2020-Aug-12 04:16 325 13 gusting 17 12.8
2020-Aug-12 04:11 261 11 gusting 15 12.8
2020-Aug-12 04:06 259 3 gusting 14 12.8
2020-Aug-12 04:01 296 5 gusting 16 12.8
2020-Aug-12 03:56 293 13 gusting 17 12.8
2020-Aug-12 03:51 298 9 gusting 17 12.8
2020-Aug-12 03:46 274 6 gusting 13 12.8
2020-Aug-12 03:41 239 6 gusting 13 12.8
2020-Aug-12 03:36 279 6 gusting 19 12.8
2020-Aug-12 03:31 267 4 gusting 19 12.8
2020-Aug-12 03:26 264 7 gusting 19 12.8
2020-Aug-12 03:21 258 2 gusting 19 12.8
2020-Aug-12 03:16 283 2 gusting 19 13.3
2020-Aug-12 03:11 298 8 gusting 24 13.3
2020-Aug-12 03:06 280 6 gusting 24 13.3
2020-Aug-12 03:01 263 3 gusting 19 13.3
2020-Aug-12 02:56 281 7 gusting 16 13.3
2020-Aug-12 02:51 290 4 gusting 16 13.9
2020-Aug-12 02:46 246 6 gusting 16 13.9
2020-Aug-12 02:41 310 6 gusting 16 13.9
2020-Aug-12 02:36 288 5 gusting 16 13.9
2020-Aug-12 02:31 219 10 gusting 16 13.9
2020-Aug-12 02:26 281 11 gusting 19 13.9
2020-Aug-12 02:21 274 2 gusting 19 13.9
2020-Aug-12 02:16 335 10 gusting 16 13.9
2020-Aug-12 02:11 210 7 gusting 16 13.9
2020-Aug-12 02:06 288 5 gusting 18 13.9
2020-Aug-12 02:01 262 4 gusting 18 13.9
2020-Aug-12 01:56 214 4 gusting 19 13.9
2020-Aug-12 01:51 219 6 gusting 19 14.4
2020-Aug-12 01:46 266 5 gusting 15 14.4
2020-Aug-12 01:41 259 8 gusting 16 15.0
2020-Aug-12 01:36 277 2 gusting 16 15.0
2020-Aug-12 01:31 233 7 gusting 12 15.0
2020-Aug-12 01:26 202 11 gusting 14 15.6
2020-Aug-12 01:21 278 4 gusting 16 15.6
2020-Aug-12 01:16 311 2 gusting 16 15.6
2020-Aug-12 01:11 225 1 gusting 10 16.1
2020-Aug-12 01:06 290 5 gusting 7 16.1
2020-Aug-12 01:01 312 2 gusting 7 16.1
2020-Aug-12 00:56 240 6 gusting 7 16.1
2020-Aug-12 00:51 257 5 gusting 7 16.7
2020-Aug-12 00:46 286 1 gusting 7 16.1
2020-Aug-12 00:41 325 3 gusting 9 16.1
2020-Aug-12 00:36 257 5 gusting 10 16.7
2020-Aug-12 00:31 286 9 gusting 10 16.7
2020-Aug-12 00:26 343 2 gusting 9 16.7
2020-Aug-12 00:21 284 5 gusting 9 17.2
2020-Aug-12 00:16 250 3 gusting 6 17.8
2020-Aug-12 00:11 224 1 gusting 8 17.8
2020-Aug-12 00:06 318 3 gusting 8 17.8
2020-Aug-12 00:01 286 0 gusting 6 17.8
2020-Aug-11 23:56 225 4 gusting 7 17.8
2020-Aug-11 23:51 301 2 gusting 7 17.8
2020-Aug-11 23:46 255 1 gusting 6 17.8
2020-Aug-11 23:41 265 2 gusting 8 17.8
2020-Aug-11 23:36 290 5 gusting 8 17.8
2020-Aug-11 23:31 289 3 gusting 8 17.2
2020-Aug-11 23:26 345 3 gusting 10 17.2
2020-Aug-11 23:21 295 5 gusting 10 17.8
2020-Aug-11 23:16 300 4 gusting 8 17.8
2020-Aug-11 23:11 259 3 gusting 10 17.2
2020-Aug-11 23:06 293 6 gusting 10 17.2
2020-Aug-11 23:01 252 6 gusting 9 17.2
2020-Aug-11 22:56 245 2 gusting 10 17.2
2020-Aug-11 22:51 255 5 gusting 10 17.2
2020-Aug-11 22:46 314 6 gusting 8 17.2
2020-Aug-11 22:41 302 5 gusting 8 17.2
2020-Aug-11 22:36 248 5 gusting 8 17.2
2020-Aug-11 22:31 311 6 gusting 8 17.2
2020-Aug-11 22:26 252 3 gusting 6 17.8
2020-Aug-11 22:21 250 4 gusting 5 18.3
2020-Aug-11 22:16 293 4 gusting 6 17.8
2020-Aug-11 22:11 295 2 gusting 6 18.3
2020-Aug-11 22:06 287 5 gusting 5 18.3
2020-Aug-11 22:01 297 3 gusting 6 17.8
2020-Aug-11 21:56 327 1 gusting 6 17.8
2020-Aug-11 21:51 283 1 gusting 6 17.8
2020-Aug-11 21:46 297 2 gusting 6 17.8
2020-Aug-11 21:41 285 5 gusting 5 17.8
2020-Aug-11 21:36 031 4 gusting 5 17.8
2020-Aug-11 21:31 358 1 gusting 6 17.8
2020-Aug-11 21:26 013 1 gusting 6 17.8
2020-Aug-11 21:21 358 1 gusting 6 17.8
2020-Aug-11 21:16 234 1 gusting 5 17.8
2020-Aug-11 21:11 238 1 gusting 5 17.8
2020-Aug-11 21:06 247 2 gusting 4 17.8
2020-Aug-11 21:01 297 1 gusting 6 17.2
2020-Aug-11 20:56 321 2 gusting 6 17.2
2020-Aug-11 20:51 330 5 gusting 6 17.2
2020-Aug-11 20:46 340 2 gusting 6 16.7
2020-Aug-11 20:41 238 0 gusting 6 16.7
2020-Aug-11 20:36 304 3 gusting 6 16.7
2020-Aug-11 20:31 248 1 gusting 6 16.1
2020-Aug-11 20:26 281 2 gusting 6 16.1
2020-Aug-11 20:21 034 1 gusting 6 16.1
2020-Aug-11 20:16 311 3 gusting 5 16.7
2020-Aug-11 20:11 267 4 gusting 5 16.7
2020-Aug-11 20:06 069 0 gusting 5 16.7
2020-Aug-11 20:01 056 3 gusting 5 17.2
2020-Aug-11 19:56 027 1 gusting 4 17.2
2020-Aug-11 19:51 091 1 gusting 4 17.2
2020-Aug-11 19:46 130 0 gusting 4 17.2
2020-Aug-11 19:41 077 2 gusting 3 17.2
2020-Aug-11 19:36 119 0 gusting 4 16.1
2020-Aug-11 19:31 054 0 gusting 4 16.1
2020-Aug-11 19:26 075 2 gusting 5 15.6
2020-Aug-11 19:21 076 2 gusting 6 15.6
2020-Aug-11 19:16 080 4 gusting 6 16.1
2020-Aug-11 19:11 101 5 gusting 6 15.6
2020-Aug-11 19:06 136 1 gusting 6 15.6
2020-Aug-11 19:01 053 3 gusting 5 15.0
2020-Aug-11 18:56 080 2 gusting 5 15.0
2020-Aug-11 18:51 095 1 gusting 5 15.6
2020-Aug-11 18:46 072 2 gusting 4 15.6
2020-Aug-11 18:41 080 3 gusting 4 15.6
2020-Aug-11 18:36 076 2 gusting 3 15.0
2020-Aug-11 18:31 236 15.0
2020-Aug-11 18:26 263 2 gusting 3 15.0
2020-Aug-11 18:21 221 1 gusting 3 14.4
2020-Aug-11 18:16 143 14.4
2020-Aug-11 18:11 113 1 gusting 3 13.9
2020-Aug-11 18:06 105 2 gusting 2 13.9
2020-Aug-11 18:01 107 2 gusting 3 13.9
2020-Aug-11 17:56 131 0 gusting 3 13.9
2020-Aug-11 17:51 080 1 gusting 2 13.3
2020-Aug-11 17:46 086 0 gusting 3 13.3
2020-Aug-11 17:41 083 1 gusting 3 13.3
2020-Aug-11 17:36 087 1 gusting 4 13.3
2020-Aug-11 17:31 083 1 gusting 4 13.3
2020-Aug-11 17:26 103 4 gusting 4 13.3
2020-Aug-11 17:21 110 2 gusting 4 13.9
2020-Aug-11 17:16 121 1 gusting 2 13.9
2020-Aug-11 17:12 147 13.3
2020-Aug-11 17:07 086 0 gusting 2 13.3
2020-Aug-11 17:01 181 13.3
2020-Aug-11 16:57 136 0 gusting 2 13.3
2020-Aug-11 16:51 119 0 gusting 2 12.8
2020-Aug-11 16:47 135 12.8
2020-Aug-11 16:42 097 12.8
2020-Aug-11 16:37 096 1 gusting 3 12.8
2020-Aug-11 16:31 131 1 gusting 3 12.8
2020-Aug-11 16:27 121 2 gusting 4 12.8
2020-Aug-11 16:22 096 2 gusting 5 12.8
2020-Aug-11 16:16 135 2 gusting 5 12.8
2020-Aug-11 16:11 123 3 gusting 4 12.8
2020-Aug-11 16:06 089 0 gusting 5 12.8
2020-Aug-11 16:01 121 12.8
2020-Aug-11 15:56 108 1 gusting 4 12.2
2020-Aug-11 15:51 160 2 gusting 5 12.2
2020-Aug-11 15:46 099 2 gusting 5 12.2
2020-Aug-11 15:41 115 1 gusting 4 12.2
2020-Aug-11 15:36 101 2 gusting 5 12.2
2020-Aug-11 15:31 119 0 gusting 5 12.2
2020-Aug-11 15:26 154 1 gusting 3 12.2
2020-Aug-11 15:21 138 3 gusting 3 12.2
2020-Aug-11 15:16 141 1 gusting 1 12.2
2020-Aug-11 15:11 186 0 gusting 1 12.2
2020-Aug-11 15:06 205 1 gusting 2 12.2
2020-Aug-11 15:01 168 0 gusting 2 12.8
2020-Aug-11 14:56 146 12.8
2020-Aug-11 14:51 125 0 gusting 1 12.8
2020-Aug-11 14:46 130 12.2
2020-Aug-11 14:41 262 12.2
2020-Aug-11 14:36 143 12.2
2020-Aug-11 14:31 216 2 gusting 3 12.2
2020-Aug-11 14:26 225 11.7
2020-Aug-11 14:21 217 0 gusting 3 11.7
2020-Aug-11 14:16 239 11.7
2020-Aug-11 14:11 205 11.7
2020-Aug-11 14:06 240 0 gusting 3 11.7
2020-Aug-11 14:01 227 0 gusting 3 11.7
2020-Aug-11 13:56 243 11.7
2020-Aug-11 13:51 238 11.7
2020-Aug-11 13:46 238 0 gusting 2 11.7
2020-Aug-11 13:41 251 0 gusting 1 11.7
2020-Aug-11 13:36 247 11.7
2020-Aug-11 13:31 245 11.1
2020-Aug-11 13:26 252 0 gusting 3 11.1
2020-Aug-11 13:21 248 0 gusting 3 11.1
2020-Aug-11 13:16 238 1 gusting 3 11.1
2020-Aug-11 13:11 240 0 gusting 3 11.1
2020-Aug-11 13:06 238 0 gusting 3 11.1
2020-Aug-11 13:01 257 0 gusting 4 11.1
2020-Aug-11 12:56 263 2 gusting 4 11.1
2020-Aug-11 12:51 271 1 gusting 4 11.1
2020-Aug-11 12:46 282 1 gusting 4 11.1
2020-Aug-11 12:41 262 1 gusting 5 11.1
2020-Aug-11 12:36 280 1 gusting 6 11.1
2020-Aug-11 12:31 276 3 gusting 6 11.1
2020-Aug-11 12:26 220 2 gusting 5 11.1
2020-Aug-11 12:21 257 3 gusting 4 11.1
2020-Aug-11 12:16 268 1 gusting 2 11.1
2020-Aug-11 12:11 281 1 gusting 2 11.1
2020-Aug-11 12:06 264 0 gusting 4 11.1
2020-Aug-11 12:01 274 0 gusting 4 11.1
2020-Aug-11 11:57 253 3 gusting 4 11.1
2020-Aug-11 11:51 259 0 gusting 4 11.1
2020-Aug-11 11:46 257 0 gusting 4 11.1
2020-Aug-11 11:41 262 0 gusting 3 11.1
2020-Aug-11 11:36 262 1 gusting 3 11.1
2020-Aug-11 11:31 279 0 gusting 0 11.1
2020-Aug-11 11:26 279 11.1
2020-Aug-11 11:21 280 11.1
2020-Aug-11 11:16 252 11.1
2020-Aug-11 11:11 238 0 gusting 6 11.1
2020-Aug-11 11:06 219 1 gusting 6 11.1
2020-Aug-11 11:01 236 5 gusting 5 11.1
2020-Aug-11 10:56 244 1 gusting 4 11.1
2020-Aug-11 10:51 274 1 gusting 4 11.7
2020-Aug-11 10:46 281 2 gusting 5 11.7
2020-Aug-11 10:41 260 0 gusting 5 11.7
2020-Aug-11 10:37 249 2 gusting 3 11.7
2020-Aug-11 10:31 257 1 gusting 3 11.7
2020-Aug-11 10:26 261 0 gusting 1 11.7
2020-Aug-11 10:21 231 0 gusting 1 11.7
2020-Aug-11 10:16 241 0 gusting 1 11.7
2020-Aug-11 10:11 259 11.7
2020-Aug-11 10:06 262 11.7
2020-Aug-11 10:01 262 11.7
2020-Aug-11 09:56 267 11.7
2020-Aug-11 09:51 264 0 gusting 3 11.7
2020-Aug-11 09:46 280 1 gusting 3 11.7
2020-Aug-11 09:41 249 0 gusting 3 12.2
2020-Aug-11 09:36 252 0 gusting 4 12.2
2020-Aug-11 09:31 238 1 gusting 4 12.2
2020-Aug-11 09:26 255 12.2
2020-Aug-11 09:21 246 1 gusting 3 12.2
2020-Aug-11 09:16 247 0 gusting 4 12.2
2020-Aug-11 09:11 263 0 gusting 5 12.2
2020-Aug-11 09:06 276 2 gusting 5 12.2
2020-Aug-11 09:01 285 3 gusting 4 12.2
2020-Aug-11 08:56 260 4 gusting 5 12.2
2020-Aug-11 08:51 269 1 gusting 6 12.2
2020-Aug-11 08:46 243 2 gusting 6 12.2
2020-Aug-11 08:41 252 2 gusting 6 12.2
2020-Aug-11 08:36 280 4 gusting 6 12.2
2020-Aug-11 08:31 266 3 gusting 6 12.2
2020-Aug-11 08:26 254 1 gusting 6 12.2
2020-Aug-11 08:21 261 3 gusting 7 12.2
2020-Aug-11 08:16 282 5 gusting 7 12.2
2020-Aug-11 08:11 250 6 gusting 7 12.2
2020-Aug-11 08:06 272 6 gusting 7 12.2
2020-Aug-11 08:01 264 2 gusting 7 12.2